Regional Weather Roundup
Issued by NWS

Home | Current Version | Previous Version | Text Only | Print | Product List | Glossary On
Versions: 1 2 3 4 5 6 7 8 9 10 11 12 13 14 15 16 17 18 19 20 21 22 23 24 25 26 27
000
ASUS46 KPQR 261310
RWROR

OREGON REGIONAL WEATHER ROUNDUP
NATIONAL WEATHER SERVICE PORTLAND OR
600 AM PDT TUE SEP 26 2017

NOTE: "FAIR" INDICATES FEW OR NO CLOUDS BELOW 12,000 FEET WITH
NO SIGNIFICANT WEATHER AND/OR OBSTRUCTIONS TO VISIBILITY.

ORZ001>013-261400-
NORTHWEST OREGON


CITY           SKY/WX    TMP DP  RH WIND       PRES   REMARKS
ASTORIA        CLOUDY    59  58  96 CALM      30.13S
NEWPORT        CLOUDY    54  54 100 E5        30.14S FOG
PORTLAND       MOCLDY    57  55  93 CALM      30.13S
VANCOUVER WA   PTCLDY    55  54  96 CALM      30.12S
SCAPPOOSE      PTCLDY    52  52 100 CALM      30.13R
HILLSBORO      CLEAR     54  52  93 CALM      30.12S
AURORA         CLEAR     57  53  86 CALM      30.13S
MCMINNVILLE    CLEAR     54  54 100 SW3       30.13R FOG
SALEM          CLEAR     55  52  89 CALM      30.11R
CORVALLIS      CLEAR     51  50  96 CALM      30.12S
EUGENE         MOCLDY    49  49 100 CALM      30.12R FOG
$$

ORZ021-028-261400-
SOUTHWEST OREGON


CITY           SKY/WX    TMP DP  RH WIND       PRES   REMARKS
NORTH BEND     FOG       52  52 100 CALM      30.10S VSB 1/4
BROOKINGS      CLEAR     62  52  69 CALM      29.99S
ROSEBURG       CLEAR     51  49  92 CALM      30.10S
SEXTON SUMMIT  CLEAR     53  43  68 NE7       30.12
GRANTS PASS    FAIR      48  45  87 CALM      30.13S
MEDFORD        CLEAR     50  46  86 CALM      30.10R
$$

ORZ014>016-041-261400-
COLUMBIA GORGE


CITY           SKY/WX    TMP DP  RH WIND       PRES   REMARKS
TROUTDALE      CLOUDY    61  57  87 CALM      30.12S
THE DALLES     CLEAR     53  49  86 E6        30.12R
$$

ORZ029>031-041-044-049-050-061>064-502-503-505>511-261400-
EASTERN OREGON


CITY           SKY/WX    TMP DP  RH WIND       PRES   REMARKS
MADRAS         CLEAR    N/A N/A N/A CALM      30.17R
REDMOND        CLEAR     41  37  86 S6        30.16R
BEND           CLEAR     43  39  87 SW3       30.17R
PRINEVILLE     CLEAR     39  39 100 CALM      30.17R
KLAMATH FALLS  CLEAR     46  43  89 N7        30.14R
LAKEVIEW       CLEAR     41  37  86 N9        30.16R
HERMISTON      CLOUDY    59  51  75 S3        30.12R
PENDLETON      CLOUDY    53  48  83 SE6       30.13R
JOHN DAY       CLOUDY    55  44  66 CALM      30.16R
MEACHAM        CLOUDY    42  40  92 CALM      30.18R
LA GRANDE      MOCLDY    45  42  89 NW3       30.17R
BAKER CITY     MOCLDY    44  39  82 W3        30.17R
BURNS          CLOUDY    47  39  74 CALM      30.15S
ROME             N/A     47  34  60 CALM      30.14R
ONTARIO        PTCLDY    48  41  76 CALM      30.14R
$$




USA.gov is the U.S. government's official web portal to all federal, state and local government web resources and services.